Hourly Data Report for October 06, 2017

All times are specified in Local Standard Time (LST). Add 1 hour to adjust for Daylight Saving Time where and when it is observed.

GEORGE ISLAND (AUT)
MANITOBA

52°49'07.014" N
97°36'59.028" W
222.50 m
5030984
71445
WWS

Download Data

Hourly Data (October 2017)
Hourly Data Report for October 6, 2017
Temp Definition
°C
Dew Point Temp Definition
°C
Rel Hum Definition
%
Wind Dir Definition
10's deg

Wind Spd Definition
km/h
Visibility Definition
km
Stn Press Definition
kPa
Hmdx Definition


Wind Chill Definition


Weather Definition


TIME
00:00 12.8 5.3 61 24 38   98.45     LegendNANA
01:00 12.5 5.6 63 24 35   98.39     LegendNANA
02:00 11.9 6.0 67 24 38   98.37     LegendNANA
03:00 12.1 6.5 69 23 39   98.31     LegendNANA
04:00 12.0 6.5 69 23 37   98.26     LegendNANA
05:00 11.9 6.5 69 23 38   98.21     LegendNANA
06:00 11.7 7.1 73 23 39   98.13     LegendNANA
07:00 11.5 6.5 72 22 43   98.04     LegendNANA
08:00 11.6 6.9 73 22 44   97.97     LegendNANA
09:00 11.6 6.4 70 22 45   97.88     LegendNANA
10:00 12.2 7.0 71 22 42   97.83     LegendNANA
11:00 13.5 7.3 66 21 45   97.74     LegendNANA
12:00 14.2 7.9 66 20 44   97.66     LegendNANA
13:00 14.9 9.1 68 20 41   97.53     LegendNANA
14:00 15.0 9.1 68 19 46   97.41     LegendNANA
15:00 14.9 8.8 67 19 49   97.30     LegendNANA
16:00 15.2 8.2 63 19 52   97.22     LegendNANA
17:00 15.0 8.1 64 19 52   97.13     LegendNANA
18:00 14.4 9.1 71 19 44   97.08     LegendNANA
19:00 14.3 8.8 70 19 43   97.03     LegendNANA
20:00 14.2 7.7 65 19 43   96.93     LegendNANA
21:00 13.9 7.8 67 19 44   96.83     LegendNANA
22:00 13.7 7.5 66 19 44   96.72     LegendNANA
23:00 13.8 8.0 68 19 42   96.60     LegendNANA

Notes on Data Quality.

Legend

  • E = Estimated
  • M = Missing
  • NA = Not Available
  • ‡ = Partner data that is not subject to review by the National Climate Archives
Date modified: